TimeCDT,TemperatureF,Dew PointF,Humidity,Sea Level PressureIn,VisibilityMPH,Wind Direction,Wind SpeedMPH,Gust SpeedMPH,PrecipitationIn,Events,Conditions,WindDirDegrees,DateUTC
12:55 AM,79.0,64.0,60,29.79,10.0,South,15.0,-,N/A,,Clear,170,2013-06-24 05:55:00
1:55 AM,79.0,66.0,64,29.78,10.0,South,20.7,28.8,N/A,,Clear,170,2013-06-24 06:55:00
2:55 AM,77.0,66.0,69,29.77,10.0,South,19.6,27.6,N/A,,Clear,170,2013-06-24 07:55:00
3:55 AM,77.0,66.0,69,29.77,10.0,South,18.4,25.3,N/A,,Clear,180,2013-06-24 08:55:00
4:55 AM,75.9,66.0,71,29.78,10.0,South,17.3,24.2,N/A,,Clear,170,2013-06-24 09:55:00
5:55 AM,75.9,64.9,69,29.78,10.0,South,19.6,26.5,N/A,,Mostly Cloudy,180,2013-06-24 10:55:00
6:55 AM,75.9,64.9,69,29.75,10.0,South,19.6,-,N/A,,Partly Cloudy,180,2013-06-24 11:55:00
7:55 AM,78.1,64.9,64,29.78,10.0,South,20.7,27.6,N/A,,Scattered Clouds,190,2013-06-24 12:55:00
8:15 AM,77.0,64.4,65,29.88,10.0,West,13.8,20.7,N/A,,Partly Cloudy,270,2013-06-24 13:15:00
8:34 AM,75.2,64.4,69,29.89,9.0,WSW,5.8,-,0.00,Rain-Thunderstorm,Light Rain,250,2013-06-24 13:34:00
8:55 AM,72.0,68.0,87,29.83,7.0,Calm,Calm,-,0.01,Rain-Thunderstorm,Light Thunderstorms and Rain,0,2013-06-24 13:55:00
9:31 AM,71.6,68.0,88,29.87,10.0,ESE,6.9,-,0.01,Thunderstorm,Scattered Clouds,110,2013-06-24 14:31:00
9:55 AM,72.0,66.9,84,29.83,10.0,East,8.1,-,0.01,Thunderstorm,Thunderstorm,80,2013-06-24 14:55:00
10:55 AM,72.0,66.9,84,29.81,10.0,ESE,9.2,-,0.06,Thunderstorm,Thunderstorm,120,2013-06-24 15:55:00
11:09 AM,71.6,66.2,83,29.85,10.0,ESE,9.2,-,N/A,,Clear,120,2013-06-24 16:09:00
11:55 AM,73.9,68.0,82,29.79,10.0,SE,15.0,24.2,0.00,,Clear,140,2013-06-24 16:55:00
12:55 PM,82.0,70.0,67,29.76,10.0,South,12.7,21.9,N/A,,Clear,170,2013-06-24 17:55:00
1:40 PM,86.0,66.2,51,29.83,10.0,SSW,25.3,33.4,N/A,Thunderstorm,Thunderstorm,210,2013-06-24 18:40:00
1:55 PM,82.9,64.0,53,29.77,2.0,South,23.0,32.2,N/A,Thunderstorm,Unknown,190,2013-06-24 18:55:00
2:08 PM,82.4,64.4,54,29.82,10.0,South,16.1,27.6,N/A,Thunderstorm,Thunderstorm,190,2013-06-24 19:08:00
2:44 PM,82.4,64.4,54,29.80,10.0,SSE,11.5,-,N/A,,Clear,160,2013-06-24 19:44:00
2:55 PM,81.0,66.0,60,29.75,10.0,South,12.7,-,N/A,,Clear,170,2013-06-24 19:55:00
3:55 PM,84.0,66.9,56,29.75,10.0,SSW,12.7,20.7,N/A,,Clear,200,2013-06-24 20:55:00
4:55 PM,88.0,64.9,46,29.72,10.0,South,20.7,29.9,N/A,,Clear,190,2013-06-24 21:55:00
5:55 PM,84.9,66.0,53,29.70,10.0,South,11.5,-,N/A,,Clear,170,2013-06-24 22:55:00
6:55 PM,84.0,68.0,58,29.68,10.0,SSE,8.1,-,N/A,,Clear,150,2013-06-24 23:55:00
7:55 PM,86.0,63.0,46,29.67,10.0,South,15.0,24.2,N/A,,Clear,170,2013-06-25 00:55:00
8:55 PM,84.9,64.9,51,29.67,10.0,South,21.9,31.1,N/A,,Partly Cloudy,170,2013-06-25 01:55:00
9:55 PM,84.0,64.9,53,29.67,10.0,South,23.0,35.7,N/A,,Clear,170,2013-06-25 02:55:00
10:55 PM,84.9,61.0,44,29.67,10.0,South,21.9,28.8,N/A,,Clear,180,2013-06-25 03:55:00
11:55 PM,81.0,64.0,56,29.68,10.0,South,21.9,28.8,N/A,,Clear,170,2013-06-25 04:55:00